| time (UTC) | temp F | wind direction | speed MPH | gust MPH | rain 1hr in | rain 24hr in | rain mn in | humidity % | barometer mb |
| 20260503203039 | 75 | 173 | 2.0 | 6.0 | 0.00 | 0.00 | 0.00 | 22 | 1009.9 |
| 20260503201538 | 75 | 129 | 2.0 | 7.0 | 0.00 | 0.00 | 0.00 | 25 | 1010.0 |
| 20260503200044 | 75 | 359 | 1.0 | 7.0 | 0.00 | 0.00 | 0.00 | 26 | 1010.1 |
| 20260503194537 | 74 | 79 | 4.0 | 8.0 | 0.00 | 0.00 | 0.00 | 23 | 1010.4 |
| 20260503193047 | 74 | 352 | 2.0 | 9.0 | 0.00 | 0.00 | 0.00 | 25 | 1010.6 |
| 20260503191542 | 74 | 0 | 4.0 | 10.0 | 0.00 | 0.00 | 0.00 | 22 | 1010.7 |
| 20260503190046 | 74 | 268 | 2.0 | 7.0 | 0.00 | 0.00 | 0.00 | 24 | 1010.9 |
| 20260503184541 | 73 | 94 | 2.0 | 5.0 | 0.00 | 0.00 | 0.00 | 31 | 1011.2 |
| 20260503183036 | 70 | 101 | 1.0 | 6.0 | 0.00 | 0.00 | 0.00 | 39 | 1011.2 |
| 20260503181542 | 68 | 147 | 1.0 | 4.0 | 0.00 | 0.00 | 0.00 | 41 | 1011.3 |
| 20260503180044 | 66 | 158 | 1.0 | 3.0 | 0.00 | 0.00 | 0.00 | 44 | 1011.5 |
| 20260503174537 | 64 | 91 | 2.0 | 5.0 | 0.00 | 0.00 | 0.00 | 45 | 1011.7 |
| 20260503173103 | 63 | 102 | 1.0 | 5.0 | 0.00 | 0.00 | 0.00 | 49 | 1011.8 |
| 20260503171547 | 62 | 109 | 1.0 | 4.0 | 0.00 | 0.00 | 0.00 | 50 | 1011.9 |
| 20260503081549 | 45 | 0 | 0.0 | 1.0 | 0.00 | 0.00 | 0.00 | 66 | 1012.7 |
| 20260503071541 | 47 | 0 | 0.0 | 0.0 | 0.00 | 0.00 | 0.00 | 60 | 1012.7 |
| 20260503054539 | 52 | 20 | 0.0 | 3.0 | 0.00 | 0.00 | 0.00 | 52 | 1012.3 |
| 20260503053037 | 54 | 0 | 0.0 | 1.0 | 0.00 | 0.00 | 0.00 | 52 | 1012.2 |
| 20260503051537 | 54 | 0 | 0.0 | 2.0 | 0.00 | 0.00 | 0.00 | 50 | 1012.1 |
| 20260503050039 | 54 | 30 | 0.0 | 1.0 | 0.00 | 0.00 | 0.00 | 51 | 1012.0 |
| 20260503044541 | 55 | 0 | 0.0 | 1.0 | 0.00 | 0.00 | 0.00 | 48 | 1012.1 |
| 20260503043036 | 55 | 0 | 0.0 | 1.0 | 0.00 | 0.00 | 0.00 | 49 | 1012.0 |
| 20260503041539 | 57 | 40 | 0.0 | 2.0 | 0.00 | 0.00 | 0.00 | 45 | 1011.9 |
| 20260503040040 | 58 | 0 | 0.0 | 1.0 | 0.00 | 0.00 | 0.00 | 42 | 1011.8 |
| 20260503034536 | 59 | 0 | 0.0 | 0.0 | 0.00 | 0.00 | 0.00 | 40 | 1011.6 |
| 20260503033035 | 61 | 0 | 0.0 | 1.0 | 0.00 | 0.00 | 0.00 | 37 | 1011.3 |
| 20260503031541 | 62 | 0 | 0.0 | 1.0 | 0.00 | 0.00 | 0.00 | 34 | 1011.1 |
| 20260503030035 | 63 | 347 | 0.0 | 2.0 | 0.00 | 0.00 | 0.00 | 33 | 1011.0 |
| 20260503024538 | 64 | 30 | 0.0 | 1.0 | 0.00 | 0.00 | 0.00 | 31 | 1011.0 |
| 20260503023038 | 65 | 0 | 0.0 | 1.0 | 0.00 | 0.00 | 0.00 | 29 | 1011.1 |
| 20260503021539 | 67 | 0 | 0.0 | 2.0 | 0.00 | 0.00 | 0.00 | 29 | 1011.0 |
| 20260503020038 | 68 | 311 | 2.0 | 4.0 | 0.00 | 0.00 | 0.00 | 24 | 1010.9 |
| 20260503014537 | 69 | 278 | 2.0 | 3.0 | 0.00 | 0.00 | 0.00 | 25 | 1010.9 |
| 20260503013043 | 69 | 300 | 2.0 | 5.0 | 0.00 | 0.00 | 0.00 | 25 | 1011.0 |
| 20260503011539 | 70 | 323 | 2.0 | 7.0 | 0.00 | 0.00 | 0.00 | 22 | 1011.0 |
| 20260503010038 | 71 | 319 | 1.0 | 5.0 | 0.00 | 0.00 | 0.00 | 22 | 1011.2 |
| 20260503004536 | 71 | 223 | 2.0 | 8.0 | 0.00 | 0.00 | 0.00 | 20 | 1011.2 |
| 20260503003035 | 72 | 307 | 4.0 | 8.0 | 0.00 | 0.00 | 0.00 | 18 | 1011.1 |
| 20260503001538 | 73 | 298 | 2.0 | 5.0 | 0.00 | 0.00 | 0.00 | 18 | 1011.0 |
| 20260503000054 | 73 | 238 | 2.0 | 7.0 | 0.00 | 0.00 | 0.00 | 20 | 1011.1 |
| 20260502234536 | 73 | 143 | 1.0 | 7.0 | 0.00 | 0.00 | 0.00 | 21 | 1011.2 |
| 20260502233035 | 74 | 181 | 1.0 | 6.0 | 0.00 | 0.00 | 0.00 | 20 | 1011.3 |
| 20260502231542 | 74 | 0 | 1.0 | 4.0 | 0.00 | 0.00 | 0.00 | 20 | 1011.3 |
| 20260502230036 | 72 | 42 | 1.0 | 3.0 | 0.00 | 0.00 | 0.00 | 20 | 1011.6 |
| 20260502224538 | 73 | 23 | 2.0 | 5.0 | 0.00 | 0.00 | 0.00 | 20 | 1011.8 |
| 20260502223040 | 73 | 270 | 2.0 | 6.0 | 0.00 | 0.00 | 0.00 | 21 | 1011.9 |
| 20260502221537 | 72 | 322 | 3.0 | 7.0 | 0.00 | 0.00 | 0.00 | 21 | 1012.2 |
| 20260502220043 | 72 | 304 | 3.0 | 6.0 | 0.00 | 0.00 | 0.00 | 20 | 1012.3 |
| 20260502214534 | 72 | 203 | 2.0 | 8.0 | 0.00 | 0.00 | 0.00 | 20 | 1012.4 |
| 20260502213035 | 72 | 218 | 6.0 | 10.0 | 0.00 | 0.00 | 0.00 | 20 | 1012.5 |
| 20260502211535 | 73 | 0 | 3.0 | 8.0 | 0.00 | 0.00 | 0.00 | 19 | 1012.5 |
| 20260502210033 | 73 | 309 | 4.0 | 8.0 | 0.00 | 0.00 | 0.00 | 20 | 1012.8 |
| 20260502204537 | 73 | 153 | 1.0 | 3.0 | 0.00 | 0.00 | 0.00 | 20 | 1012.9 |